Content
SEND FEEDBACK

Daily
Averages
Monthly
Summary
United States of America

TAMUNING, GUAM


Home > North America > United States > Guam
Elevation: 250 feet     Latitude: 13 29N     Longitude: 144 47E

WEATHER
 
SELECT A DAY
Number of Records: 357,336;   Date Range: 1/1/95 - 12/26/14
 
SHARE

PRINT THIS DATA

[ ← Previous Day ]
WEATHER ALMANAC - FEBRUARY 28, 2013
[ Next Day → ]
[ °C ]   °F
Weather ElementAverageHighLow
Temperature78.8 °F84.2 °F (12:03 pm)74.8 °F (5:55 am)
Dewpoint74.5 °F77 °F (12:57 pm)71.6 °F (5:52 am)
Humidity87.1 %100 % (3:12 am)70 % (12:22 pm)
Barometer29.82 in29.86 in (9:20 pm)29.77 in (3:55 pm)
Wind Speed15.2 mph19.6 mph (1:47 am)
Wind Gust29.9 mph (1:47 am)
Weather ElementAverage
Visibility9.6 mi
Wind DirectionE (92.5 °)

Weather ElementTotal
Precipitation---
Cooling Degree Days14.5 (Base 65)
Growing Degree Days29.5 (Base 50)
Averaged from 168 records on February 28, 2013
WEATHER CONDITIONS BREAKOUT
WIND DIRECTION BREAKOUT
WEATHER BY HOUR - FEBRUARY 28, 2013
[ °C ]   °F
Local TimeTemperatureDewpointHumidityBarometerVisibilityWind DirectionWind SpeedGust SpeedPrecipitationEventsConditions
12:21 AM77.0 °F73.4 °F89 %29.83 in10.0 miEast (80°)16.1 mphMostly Cloudy
12:34 AM77.0 °F73.4 °F89 %29.83 in10.0 miEast (80°)12.7 mphOvercast
12:55 AM76.6 °F74.7 °F94 %29.83 in10.0 miEast (80°)13.8 mphMostly Cloudy
1:10 AM77.0 °F75.2 °F94 %29.82 in10.0 miEast (90°)11.5 mphMostly Cloudy
1:47 AM77.0 °F73.4 °F89 %29.81 in8.0 miEast (100°)19.6 mph29.9 mphRainLight Rain
1:48 AM77.0 °F73.4 °F89 %29.81 in7.0 miEast (100°)18.4 mph29.9 mphRainLight Rain
1:53 AM75.2 °F73.4 °F94 %29.81 in6.0 miEast (90°)17.3 mph29.9 mphRainLight Rain
1:55 AM75.6 °F73.8 °F94 %29.81 in5.0 miEast (100°)15.0 mph0.00 inRainLight Rain
1:57 AM75.2 °F73.4 °F94 %29.81 in4.0 miEast (100°)19.6 mphRainLight Rain
1:59 AM75.2 °F73.4 °F94 %29.81 in4.0 miEast (90°)17.3 mphRainLight Rain
2:03 AM75.2 °F73.4 °F94 %29.81 in3.0 miEast (90°)13.8 mphRainLight Rain
2:05 AM75.2 °F73.4 °F94 %29.81 in4.0 miEast (90°)11.5 mphRainLight Rain
2:10 AM75.2 °F73.4 °F94 %29.81 in8.0 miEast (80°)11.5 mphOvercast
2:28 AM75.2 °F73.4 °F94 %29.80 in10.0 miEast (90°)12.7 mphOvercast
2:30 AM75.2 °F73.4 °F94 %29.80 in10.0 miEast (90°)11.5 mphOvercast
2:44 AM75.2 °F73.4 °F94 %29.80 in10.0 miEast (90°)12.7 mphMostly Cloudy
2:46 AM75.2 °F73.4 °F94 %29.80 in10.0 miEast (90°)13.8 mphMostly Cloudy
2:47 AM77.0 °F75.2 °F94 %29.80 in10.0 miEast (90°)13.8 mphMostly Cloudy
2:48 AM77.0 °F75.2 °F94 %29.80 in10.0 miEast (90°)15.0 mphOvercast
2:55 AM76.3 °F74.5 °F94 %29.79 in10.0 miEast (90°)12.7 mph0.00 inOvercast
3:00 AM77.0 °F75.2 °F94 %29.79 in10.0 miEast (90°)17.3 mph21.9 mphOvercast
3:09 AM77.0 °F75.2 °F94 %29.79 in10.0 miEast (80°)19.6 mphLight Drizzle
3:12 AM75.2 °F75.2 °F100 %29.79 in10.0 miEast (90°)18.4 mph25.3 mphLight Drizzle
3:14 AM75.2 °F75.2 °F100 %29.79 in10.0 miEast (90°)17.3 mph25.3 mphLight Drizzle
3:18 AM75.2 °F73.4 °F94 %29.80 in10.0 miEast (90°)17.3 mph25.3 mphOvercast
3:24 AM75.2 °F73.4 °F94 %29.79 in10.0 miEast (90°)16.1 mphOvercast
3:26 AM75.2 °F73.4 °F94 %29.79 in10.0 miEast (100°)16.1 mphOvercast
3:34 AM77.0 °F73.4 °F89 %29.79 in10.0 miESE (110°)18.4 mph23.0 mphOvercast
3:43 AM77.0 °F75.2 °F94 %29.79 in10.0 miEast (100°)15.0 mphOvercast
3:55 AM76.5 °F74.7 °F94 %29.79 in10.0 miEast (100°)15.0 mph0.00 inOvercast
4:00 AM77.0 °F75.2 °F94 %29.79 in10.0 miEast (100°)12.7 mphOvercast
4:02 AM77.0 °F75.2 °F94 %29.79 in10.0 miESE (110°)15.0 mphOvercast
4:21 AM77.0 °F73.4 °F89 %29.79 in10.0 miESE (110°)13.8 mphOvercast
4:23 AM77.0 °F73.4 °F89 %29.79 in10.0 miEast (100°)13.8 mph20.7 mphOvercast
4:48 AM77.0 °F73.4 °F89 %29.78 in10.0 miEast (100°)12.7 mphMostly Cloudy
4:54 AM75.2 °F73.4 °F94 %29.78 in10.0 miEast (100°)12.7 mphMostly Cloudy
4:55 AM76.1 °F73.2 °F91 %29.78 in10.0 miEast (100°)12.7 mphMostly Cloudy
5:26 AM77.0 °F73.4 °F89 %29.78 in10.0 miEast (90°)12.7 mphMostly Cloudy
5:29 AM77.0 °F73.4 °F89 %29.79 in10.0 miEast (90°)11.5 mphMostly Cloudy
5:37 AM77.0 °F75.2 °F94 %29.79 in10.0 miEast (90°)11.5 mphMostly Cloudy
5:44 AM77.0 °F75.2 °F94 %29.79 in10.0 miESE (120°)10.4 mphMostly Cloudy
5:45 AM77.0 °F75.2 °F94 %29.79 in10.0 miSE (130°)12.7 mphMostly Cloudy
5:46 AM77.0 °F73.4 °F89 %29.79 in10.0 miSE (140°)15.0 mphMostly Cloudy
5:49 AM75.2 °F73.4 °F94 %29.79 in10.0 miSE (130°)13.8 mphMostly Cloudy
5:50 AM75.2 °F73.4 °F94 %29.79 in10.0 miESE (120°)13.8 mphOvercast
5:52 AM75.2 °F71.6 °F89 %29.79 in10.0 miESE (120°)11.5 mph18.4 mphOvercast
5:55 AM74.8 °F72.3 °F92 %29.79 in9.0 miSE (140°)11.5 mph19.6 mphOvercast
5:57 AM75.2 °F71.6 °F89 %29.79 in9.0 miSE (130°)15.0 mph19.6 mphRainLight Rain
5:59 AM75.2 °F71.6 °F89 %29.79 in8.0 miSE (130°)15.0 mph19.6 mphRainLight Rain
6:09 AM75.2 °F73.4 °F94 %29.79 in9.0 miSSE (150°)9.2 mphOvercast
6:12 AM75.2 °F73.4 °F94 %29.80 in7.0 miEast (100°)9.2 mphRainLight Rain
6:15 AM75.2 °F75.2 °F100 %29.80 in7.0 miEast (100°)6.9 mphLight Drizzle
6:22 AM75.2 °F75.2 °F100 %29.80 in8.0 miEast (80°)17.3 mphOvercast
6:27 AM77.0 °F73.4 °F89 %29.80 in10.0 miEast (90°)19.6 mphOvercast
6:38 AM77.0 °F73.4 °F89 %29.80 in10.0 miEast (90°)17.3 mphMostly Cloudy
6:41 AM77.0 °F73.4 °F89 %29.80 in10.0 miEast (90°)16.1 mphMostly Cloudy
6:55 AM77.7 °F74.3 °F89 %29.80 in10.0 miEast (90°)17.3 mph0.00 inMostly Cloudy
7:17 AM78.8 °F73.4 °F83 %29.81 in10.0 miEast (90°)19.6 mphMostly Cloudy
7:19 AM78.8 °F73.4 °F83 %29.81 in10.0 miEast (90°)17.3 mphMostly Cloudy
7:26 AM78.8 °F73.4 °F83 %29.81 in10.0 miEast (90°)17.3 mphMostly Cloudy
7:37 AM78.8 °F75.2 °F89 %29.82 in10.0 miEast (90°)16.1 mphMostly Cloudy
7:39 AM78.8 °F75.2 °F89 %29.82 in10.0 miEast (90°)16.1 mphRainLight Rain
7:40 AM78.8 °F75.2 °F89 %29.82 in10.0 miEast (90°)18.4 mphRainLight Rain
7:47 AM78.8 °F73.4 °F83 %29.82 in10.0 miEast (90°)17.3 mphRainLight Rain
7:50 AM78.8 °F73.4 °F83 %29.82 in10.0 miEast (100°)18.4 mphScattered Clouds
7:55 AM78.8 °F73.9 °F85 %29.82 in10.0 miEast (90°)17.3 mph0.00 inScattered Clouds
8:02 AM78.8 °F75.2 °F89 %29.82 in10.0 miEast (90°)16.1 mphMostly Cloudy
8:07 AM78.8 °F75.2 °F89 %29.82 in10.0 miEast (90°)13.8 mphScattered Clouds
8:09 AM78.8 °F75.2 °F89 %29.82 in10.0 miEast (80°)15.0 mphMostly Cloudy
8:17 AM78.8 °F75.2 °F89 %29.83 in10.0 miEast (90°)15.0 mphMostly Cloudy
8:18 AM78.8 °F75.2 °F89 %29.83 in10.0 miEast (90°)15.0 mphMostly Cloudy
8:19 AM78.8 °F75.2 °F89 %29.83 in10.0 miEast (90°)15.0 mphMostly Cloudy
8:21 AM78.8 °F75.2 °F89 %29.83 in10.0 miEast (90°)16.1 mphMostly Cloudy
8:24 AM78.8 °F75.2 °F89 %29.83 in10.0 miEast (90°)15.0 mphMostly Cloudy
8:39 AM78.8 °F75.2 °F89 %29.83 in10.0 miEast (90°)16.1 mphMostly Cloudy
8:41 AM78.8 °F75.2 °F89 %29.84 in10.0 miEast (90°)15.0 mphScattered Clouds
8:48 AM78.8 °F75.2 °F89 %29.84 in10.0 miEast (100°)15.0 mphMostly Cloudy
8:55 AM79.2 °F74.3 °F85 %29.84 in10.0 miEast (90°)16.1 mphMostly Cloudy
8:56 AM78.8 °F75.2 °F89 %29.84 in10.0 miEast (90°)16.1 mphMostly Cloudy
9:05 AM78.8 °F75.2 °F89 %29.84 in10.0 miEast (90°)13.8 mphMostly Cloudy
9:07 AM78.8 °F75.2 °F89 %29.84 in10.0 miEast (100°)12.7 mph21.9 mphMostly Cloudy
9:08 AM78.8 °F75.2 °F89 %29.84 in10.0 miEast (100°)12.7 mph21.9 mphMostly Cloudy
9:43 AM80.6 °F75.2 °F84 %29.85 in10.0 miEast (90°)17.3 mphMostly Cloudy
9:44 AM80.6 °F75.2 °F84 %29.84 in10.0 miEast (100°)17.3 mphMostly Cloudy
9:45 AM80.6 °F75.2 °F84 %29.85 in10.0 miEast (100°)15.0 mphMostly Cloudy
9:46 AM80.6 °F75.2 °F84 %29.85 in10.0 miEast (100°)15.0 mphMostly Cloudy
9:55 AM80.6 °F74.8 °F83 %29.85 in10.0 miEast (90°)16.1 mphMostly Cloudy
9:59 AM80.6 °F75.2 °F84 %29.85 in10.0 miEast (100°)13.8 mphMostly Cloudy
10:04 AM80.6 °F75.2 °F84 %29.85 in10.0 miEast (90°)16.1 mphMostly Cloudy
10:06 AM80.6 °F75.2 °F84 %29.85 in10.0 miEast (90°)17.3 mphMostly Cloudy
10:55 AM80.6 °F74.5 °F82 %29.85 in10.0 miEast (90°)16.1 mphMostly Cloudy
10:56 AM80.6 °F75.2 °F84 %29.85 in10.0 miEast (90°)17.3 mphMostly Cloudy
10:57 AM80.6 °F75.2 °F84 %29.85 in10.0 miEast (80°)16.1 mphMostly Cloudy
11:03 AM80.6 °F75.2 °F84 %29.85 in10.0 miEast (100°)15.0 mph23.0 mphMostly Cloudy
11:10 AM80.6 °F75.2 °F84 %29.84 in10.0 miEast (80°)19.6 mph24.2 mphMostly Cloudy
11:55 AM83.5 °F75.4 °F76 %29.83 in10.0 miEast (90°)15.0 mphMostly Cloudy
12:03 PM84.2 °F75.2 °F74 %29.83 in10.0 miEast (90°)17.3 mphScattered Clouds
12:07 PM82.4 °F75.2 °F79 %29.83 in10.0 miEast (90°)17.3 mphMostly Cloudy
12:22 PM84.2 °F73.4 °F70 %29.82 in10.0 miEast (100°)13.8 mphScattered Clouds
12:28 PM84.2 °F75.2 °F74 %29.82 in10.0 miEast (100°)15.0 mphMostly Cloudy
12:33 PM84.2 °F75.2 °F74 %29.82 in10.0 miEast (90°)15.0 mphScattered Clouds
12:34 PM84.2 °F75.2 °F74 %29.82 in10.0 miEast (100°)15.0 mphMostly Cloudy
12:39 PM84.2 °F75.2 °F74 %29.81 in10.0 miEast (100°)12.7 mphScattered Clouds
12:48 PM82.4 °F75.2 °F79 %29.81 in10.0 miEast (80°)13.8 mphMostly Cloudy
12:50 PM82.4 °F75.2 °F79 %29.81 in10.0 miEast (80°)18.4 mphRainLight Rain
12:55 PM81.7 °F76.5 °F84 %29.81 in10.0 miEast (80°)12.7 mph21.9 mph0.00 inRainLight Rain
12:57 PM82.4 °F77.0 °F84 %29.81 in10.0 miEast (90°)12.7 mph21.9 mphRainLight Rain
12:59 PM82.4 °F77.0 °F84 %29.81 in10.0 miEast (90°)13.8 mphScattered Clouds
1:03 PM82.4 °F75.2 °F79 %29.81 in9.0 miEast (90°)17.3 mphLight Drizzle
1:10 PM80.6 °F75.2 °F84 %29.81 in6.0 miEast (90°)12.7 mphRainLight Rain
1:20 PM80.6 °F75.2 °F84 %29.81 in10.0 miEast (90°)16.1 mphMostly Cloudy
1:25 PM80.6 °F75.2 °F84 %29.81 in10.0 miEast (80°)16.1 mphMostly Cloudy
1:26 PM80.6 °F75.2 °F84 %29.81 in10.0 miEast (90°)16.1 mphMostly Cloudy
1:39 PM82.4 °F75.2 °F79 %29.80 in10.0 miEast (80°)16.1 mphMostly Cloudy
1:51 PM82.4 °F75.2 °F79 %29.80 in10.0 miEast (80°)17.3 mphMostly Cloudy
1:52 PM82.4 °F75.2 °F79 %29.80 in10.0 miEast (90°)18.4 mphMostly Cloudy
1:55 PM83.1 °F75.2 °F77 %29.80 in10.0 miEast (90°)16.1 mph0.00 inMostly Cloudy
2:10 PM84.2 °F75.2 °F74 %29.80 in10.0 miEast (80°)17.3 mphMostly Cloudy
2:14 PM84.2 °F75.2 °F74 %29.79 in10.0 miEast (90°)15.0 mphMostly Cloudy
2:24 PM84.2 °F75.2 °F74 %29.78 in10.0 miEast (90°)16.1 mphScattered Clouds
2:27 PM84.2 °F75.2 °F74 %29.78 in10.0 miEast (90°)16.1 mphMostly Cloudy
2:41 PM84.2 °F75.2 °F74 %29.78 in10.0 miEast (90°)16.1 mph19.6 mphScattered Clouds
2:55 PM83.7 °F75.6 °F76 %29.78 in10.0 miEast (100°)13.8 mphScattered Clouds
3:55 PM82.2 °F74.8 °F78 %29.77 in10.0 miEast (90°)18.4 mphScattered Clouds
4:55 PM82.0 °F75.2 °F80 %29.78 in10.0 miEast (80°)17.3 mphScattered Clouds
5:11 PM80.6 °F75.2 °F84 %29.78 in10.0 miEast (90°)19.6 mph23.0 mphMostly Cloudy
5:18 PM80.6 °F75.2 °F84 %29.78 in10.0 miEast (90°)17.3 mph23.0 mphScattered Clouds
5:55 PM79.7 °F74.3 °F83 %29.79 in10.0 miEast (80°)17.3 mph23.0 mphPartly Cloudy
6:11 PM78.8 °F75.2 °F89 %29.80 in10.0 miEast (80°)15.0 mphMostly Cloudy
6:17 PM78.8 °F75.2 °F89 %29.80 in10.0 miEast (90°)17.3 mphScattered Clouds
6:55 PM78.6 °F74.7 °F88 %29.80 in10.0 miEast (90°)15.0 mphPartly Cloudy
7:23 PM78.8 °F75.2 °F89 %29.81 in10.0 miEast (90°)17.3 mphMostly Cloudy
7:38 PM78.8 °F75.2 °F89 %29.81 in10.0 miEast (90°)18.4 mphScattered Clouds
7:55 PM78.6 °F74.3 °F87 %29.82 in10.0 miEast (90°)13.8 mphScattered Clouds
8:16 PM78.8 °F73.4 °F83 %29.83 in10.0 miEast (90°)17.3 mphMostly Cloudy
8:18 PM78.8 °F73.4 °F83 %29.83 in10.0 miEast (100°)17.3 mphScattered Clouds
8:20 PM78.8 °F73.4 °F83 %29.83 in10.0 miEast (90°)17.3 mphMostly Cloudy
8:26 PM78.8 °F75.2 °F89 %29.83 in10.0 miEast (90°)16.1 mphScattered Clouds
8:33 PM78.8 °F75.2 °F89 %29.83 in10.0 miEast (100°)15.0 mphMostly Cloudy
8:35 PM78.8 °F75.2 °F89 %29.84 in10.0 miEast (90°)17.3 mphMostly Cloudy
8:40 PM78.8 °F75.2 °F89 %29.84 in10.0 miEast (100°)16.1 mphMostly Cloudy
8:44 PM78.8 °F75.2 °F89 %29.84 in10.0 miEast (100°)17.3 mphScattered Clouds
8:54 PM78.8 °F75.2 °F89 %29.84 in10.0 miEast (90°)15.0 mphMostly Cloudy
8:55 PM78.4 °F74.7 °F88 %29.84 in10.0 miEast (100°)15.0 mphMostly Cloudy
8:57 PM78.8 °F75.2 °F89 %29.84 in10.0 miEast (90°)12.7 mphMostly Cloudy
9:14 PM78.8 °F75.2 °F89 %29.85 in10.0 miEast (90°)15.0 mphMostly Cloudy
9:20 PM78.8 °F75.2 °F89 %29.86 in10.0 miEast (90°)15.0 mphScattered Clouds
9:23 PM78.8 °F75.2 °F89 %29.86 in10.0 miEast (90°)16.1 mphMostly Cloudy
9:39 PM78.8 °F75.2 °F89 %29.86 in10.0 miEast (90°)12.7 mph21.9 mphScattered Clouds
9:42 PM78.8 °F75.2 °F89 %29.86 in10.0 miEast (90°)16.1 mphMostly Cloudy
9:55 PM78.6 °F74.8 °F88 %29.86 in10.0 miEast (80°)13.8 mphMostly Cloudy
10:10 PM78.8 °F75.2 °F89 %29.86 in10.0 miEast (80°)16.1 mphScattered Clouds
10:25 PM78.8 °F75.2 °F89 %29.86 in10.0 miENE (70°)15.0 mphMostly Cloudy
10:28 PM78.8 °F75.2 °F89 %29.86 in10.0 miENE (70°)17.3 mphMostly Cloudy
10:32 PM78.8 °F75.2 °F89 %29.86 in10.0 miEast (90°)15.0 mphScattered Clouds
10:40 PM78.8 °F75.2 °F89 %29.86 in10.0 miEast (80°)17.3 mphMostly Cloudy
10:53 PM78.8 °F73.4 °F83 %29.86 in10.0 miEast (80°)15.0 mphScattered Clouds
10:55 PM78.1 °F74.1 °F88 %29.86 in10.0 miEast (80°)12.7 mphScattered Clouds
11:02 PM78.8 °F73.4 °F83 %29.86 in10.0 miEast (80°)12.7 mphMostly Cloudy
11:04 PM78.8 °F73.4 °F83 %29.86 in10.0 miEast (80°)13.8 mphMostly Cloudy
11:07 PM78.8 °F73.4 °F83 %29.86 in10.0 miEast (80°)12.7 mphMostly Cloudy
11:09 PM78.8 °F73.4 °F83 %29.86 in10.0 miEast (80°)11.5 mphScattered Clouds
11:10 PM78.8 °F73.4 °F83 %29.86 in10.0 miEast (80°)11.5 mphMostly Cloudy
11:13 PM78.8 °F73.4 °F83 %29.86 in10.0 miEast (90°)12.7 mphScattered Clouds
11:16 PM78.8 °F73.4 °F83 %29.86 in10.0 miEast (80°)13.8 mphMostly Cloudy
11:26 PM78.8 °F73.4 °F83 %29.86 in10.0 miEast (80°)12.7 mphScattered Clouds
11:38 PM78.8 °F73.4 °F83 %29.86 in10.0 miEast (80°)15.0 mphMostly Cloudy
11:55 PM78.3 °F74.3 °F88 %29.86 in10.0 miENE (70°)16.1 mphMostly Cloudy
Hourly data recorded from PGUA, located miles away from Tamuning, Guam







STORIES FROM OUR PARTNERS